Regional Weather Roundup
Issued by NWS

Home | Current Version | Previous Version | Graphics & Text | Print | Product List | Glossary On
Versions: 1 2 3 4 5 6 7 8 9 10 11 12 13 14 15 16 17 18 19 20 21 22 23 24 25 26 27 28 29 30 31 32 33 34 35 36 37 38 39 40 41 42 43 44 45 46 47 48 49 50
000
ASUS43 KLSX 032107
RWRMO

WEATHER SUMMARY FOR MISSOURI
NATIONAL WEATHER SERVICE SPRINGFIELD MO
400 PM CDT SUN MAY 03 2015

NOTE: "FAIR" INDICATES FEW OR NO CLOUDS BELOW 12,000 FEET WITH NO
       SIGNIFICANT WEATHER AND/OR OBSTRUCTIONS TO VISIBILITY.
       CURRENT SKY AND/OR WEATHER CONDITIONS ARE NOT AVAILABLE FOR
       CHILLICOTHE AND FARMINGTON.

MOZ001>031-035>038-043-044-053-054-032200-
...NORTHERN AND WESTERN MISSOURI...

CITY           SKY/WX    TMP DP  RH WIND       PRES   REMARKS
KANSAS CTY INT PTSUNNY   79  58  48 S25G32    29.81F
KANSAS C DTWN  PTSUNNY   83  58  42 S22G28    29.83R
LEE`S SUMMIT   PTSUNNY   80  58  46 S21G32    29.86R
ST JOSEPH      MOSUNNY   82  57  42 S22G29    29.79F
CHILLICOTHE      N/A     83  58  42 S16G28    29.83S
KIRKSVILLE     PTSUNNY   80  60  50 S16       29.86F

$$
MOZ066>068-077>081-088>096-101>105-032200-
...SOUTHWEST MISSOURI...

CITY           SKY/WX    TMP DP  RH WIND       PRES   REMARKS
SPRINGFIELD    MOSUNNY   80  54  40 S16       29.95F
JOPLIN         PTSUNNY   80  57  45 SW17G24   29.93F

$$
MOZ032>034-039>042-045>050-055>058-069>072-032200-
...CENTRAL MISSOURI...

CITY           SKY/WX    TMP DP  RH WIND       PRES   REMARKS
COLUMBIA       PTSUNNY   81  57  43 S12       29.91F
JEFFERSON CITY PTSUNNY   83  51  33 S17       29.90F
ROLLA          MOSUNNY   81  54  39 S17G24    29.94F
SEDALIA        PTSUNNY   79  56  45 S21G26    29.89F
WARRENSBURG    PTSUNNY   81  55  41 S20G29    29.85S
OSAGE BEACH    MOSUNNY   82  52  34 S14G22    29.93S

$$
MOZ051-052-059>065-032200-
...EAST CENTRAL MISSOURI...

CITY           SKY/WX    TMP DP  RH WIND       PRES   REMARKS
ST LOUIS INTL  PTSUNNY   85  48  27 S17G24    29.95F
SPIRIT OF STL  MOSUNNY   82  49  31 S13       29.92F
ST CHARLES     MOSUNNY   83  50  31 S13G23    29.92F

$$
MOZ072>076-082>087-097>100-106>115-032200-
...SOUTH CENTRAL AND SOUTHEAST MISSOURI...

CITY           SKY/WX    TMP DP  RH WIND       PRES   REMARKS
CAPE GIRARDEAU SUNNY     81  44  27 S18       30.01F
FARMINGTON     SUNNY     81  48  32 S15       30.04S
POPLAR BLUFF   SUNNY     81  50  33 S16       30.00F
WEST PLAINS    MOSUNNY   79  52  38 S10G22    30.01F

$$



USA.gov is the U.S. government's official web portal to all federal, state and local government web resources and services.